Green Bay, WI

11:51 PM CDT on July 27, 2017 (GMT -0500)
Austin Straubel International

Weather History for KGRB - June, 2013

Change the Weather History Date:

Friday, June 28, 2013

  Actual Average Record
Temperature  
Mean Temperature 72 °F 68 °F  
Max Temperature 80 °F 79 °F 98 °F (1931)
Min Temperature 64 °F 57 °F 46 °F (1954)
Degree Days  
Heating Degree Days 0 1  
Month to date heating degree days 72 89  
Since 1 June heating degree days 72 89  
Since 1 July heating degree days 7714 7952  
Cooling Degree Days 7 4  
Month to date cooling degree days 101 74  
Year to date cooling degree days 139 92  
Since 1 June cooling degree days 101 74  
Growing Degree Days 22 (Base 50)    
Moisture  
Dew Point 63 °F    
Average Humidity 76    
Maximum Humidity 93    
Minimum Humidity 58    
Precipitation  
Precipitation 0.47 in 0.12 in 1.60 in (1942)
Month to date precipitation 3.80 3.63  
Year to date precipitation 17.57 13.28  
Snow  
Snow 0.00 in 0.00 in 0.00 in ()
Month to date snowfall 0.0 0.0  
Since 1 June snowfall 0.0 0.0  
Since 1 July snowfall 74.2 51.4  
Snow Depth 0.00 in    
Sea Level Pressure  
Sea Level Pressure 29.64 in    
Wind  
Wind Speed 10 mph (North)    
Max Wind Speed 16 mph    
Max Gust Speed 21 mph    
Visibility 9 miles    
Events Rain    
T = Trace of Precipitation, MM = Missing Value Source: NWS Daily Summary

Daily Weather History Graph

Daily Weather History Graph

Search for Another Location

Airport or City:

Trip Planner

Search our weather history database for the weather conditions in past years. The results will help you decide how hot, cold, wet, or windy it might be!

Date:

Astronomy

Jun. 28, 2013 Rise Set
Actual Time 5:10 AM CDT 8:41 PM CDT
Civil Twilight 4:33 AM CDT 9:18 PM CDT
Nautical Twilight 3:45 AM CDT 10:06 PM CDT
Astronomical Twilight 2:42 AM CDT 11:08 PM CDT
Moon 11:53 PM CDT 11:33 AM CDT
Length of Visible Light 16h 44m
Length of Day
15h 31m
Waning Gibbous, 66% of the Moon is Illuminated
Jun 28
Waning Gibbous
Jun 29
Last Quarter
Jul 8
New
Jul 15
First Quarter
Jul 22
Full

Hourly Weather History & Observations

Time (CDT) Temp. Dew Point Humidity Pressure Visibility Wind Dir Wind Speed Gust Speed Precip Events Conditions
12:53 AM 64.9 °F 63.0 °F 93% 29.68 in 10.0 mi WNW 6.9 mph - N/A   Clear
1:53 AM 64.0 °F 62.1 °F 93% 29.67 in 10.0 mi West 6.9 mph - N/A   Clear
2:53 AM 64.0 °F 61.0 °F 90% 29.66 in 10.0 mi West 6.9 mph - N/A   Partly Cloudy
3:53 AM 64.0 °F 61.0 °F 90% 29.65 in 10.0 mi West 6.9 mph - N/A   Clear
4:53 AM 64.0 °F 61.0 °F 90% 29.64 in 10.0 mi West 10.4 mph - N/A   Partly Cloudy
5:53 AM 64.0 °F 61.0 °F 90% 29.64 in 10.0 mi West 9.2 mph - N/A   Scattered Clouds
6:53 AM 66.0 °F 60.1 °F 81% 29.65 in 10.0 mi WNW 11.5 mph - N/A   Overcast
7:53 AM 68.0 °F 62.1 °F 81% 29.64 in 10.0 mi NW 10.4 mph - N/A   Clear
8:53 AM 69.1 °F 61.0 °F 75% 29.63 in 10.0 mi WNW 8.1 mph - N/A   Overcast
9:53 AM 72.0 °F 64.0 °F 76% 29.63 in 10.0 mi WNW 10.4 mph - N/A   Scattered Clouds
10:53 AM 73.0 °F 63.0 °F 71% 29.63 in 10.0 mi WNW 11.5 mph - N/A   Mostly Cloudy
11:04 AM 75.0 °F 63.0 °F 66% 29.63 in 10.0 mi NW 12.7 mph - N/A   Scattered Clouds
11:53 AM 75.9 °F 63.0 °F 64% 29.62 in 10.0 mi NNW 10.4 mph - N/A   Partly Cloudy
12:53 PM 78.1 °F 62.1 °F 58% 29.61 in 10.0 mi NNW 10.4 mph - N/A   Scattered Clouds
1:53 PM 78.1 °F 63.0 °F 60% 29.61 in 10.0 mi Variable 6.9 mph - N/A   Mostly Cloudy
2:53 PM 75.0 °F 63.0 °F 66% 29.60 in 9.0 mi NNE 10.4 mph - N/A   Mostly Cloudy
2:57 PM 73.0 °F 64.0 °F 73% 29.61 in 1.8 mi NE 9.2 mph - 0.04 in Rain Heavy Rain
3:07 PM 71.1 °F 66.0 °F 84% 29.61 in 0.8 mi NE 12.7 mph - 0.35 in Rain Heavy Rain
3:09 PM 71.1 °F 66.0 °F 84% 29.61 in 7.0 mi NE 13.8 mph - 0.37 in Rain Rain
3:53 PM 70.0 °F 63.0 °F 78% 29.62 in 10.0 mi NE 12.7 mph - 0.39 in   Mostly Cloudy
4:53 PM 70.0 °F 62.1 °F 76% 29.62 in 10.0 mi NE 11.5 mph - 0.00 in   Clear
5:53 PM 71.1 °F 64.0 °F 78% 29.63 in 10.0 mi NE 10.4 mph - N/A   Clear
6:53 PM 71.1 °F 64.0 °F 78% 29.64 in 10.0 mi NE 13.8 mph - 0.00 in   Mostly Cloudy
7:53 PM 69.1 °F 63.0 °F 81% 29.65 in 10.0 mi NE 11.5 mph - N/A   Mostly Cloudy
8:41 PM 69.1 °F 64.0 °F 84% 29.66 in 10.0 mi NE 11.5 mph - N/A   Overcast
8:53 PM 69.1 °F 64.0 °F 84% 29.66 in 10.0 mi NE 11.5 mph - N/A   Overcast
9:14 PM 69.1 °F 64.0 °F 84% 29.66 in 10.0 mi NNE 10.4 mph - N/A   Overcast
9:53 PM 68.0 °F 64.0 °F 87% 29.66 in 10.0 mi NE 10.4 mph - N/A   Overcast
10:05 PM 68.0 °F 64.0 °F 87% 29.67 in 10.0 mi NE 13.8 mph - 0.00 in Rain Light Rain
10:53 PM 66.9 °F 63.0 °F 87% 29.66 in 7.0 mi NNE 9.2 mph - 0.03 in Rain Light Rain
11:12 PM 66.0 °F 63.0 °F 90% 29.67 in 6.0 mi NNE 12.7 mph - 0.02 in Rain Rain
11:31 PM 64.9 °F 62.1 °F 90% 29.67 in 6.0 mi North 13.8 mph - 0.05 in Rain Light Rain
11:36 PM 64.9 °F 63.0 °F 93% 29.67 in 7.0 mi NNE 11.5 mph - 0.05 in Rain Light Rain
11:43 PM 64.9 °F 62.1 °F 90% 29.67 in 8.0 mi NNE 11.5 mph 19.6 mph 0.05 in Rain Light Rain
11:53 PM 64.0 °F 62.1 °F 93% 29.66 in 9.0 mi NNE 9.2 mph - 0.05 in   Overcast